Weather in Ramenskoe

Russia / Moscow Oblast     55°34′02″N   38°13′33″E
temp.,
°C
wind,
m/s
gust,
m/s
humid.,
%
clouds,
%
prec.,
mm/h
press.,
hPa
HPBL,
m
13 august, sat
sat1300:00+16nnw1158100 0.0 102411
03:00+15n0066100 0.0 102411
06:00+16ene1175100 0.0 102311
09:00+21ne1158100 0.0 1023288
12:00+25ese0145100 0.0 1023955
15:00+26se1138100 0.0 10211358
18:00+25ssw114891 0.0 102150
21:00+19n11597 0.0 102111
14 august, sun
sun1400:00+17ne22735 0.0 102111
03:00+16ene11831 0.0 102111
06:00+16ene11822 0.0 102112
09:00+22ene225818 0.0 1021376
12:00+27e223924 0.0 10201469
15:00+28ese323467 0.0 10191933
18:00+26ese234650 0.0 1019149
21:00+20ene225428 0.0 101911
15 august, mon
mon1500:00+18e226435 0.0 102011
03:00+17ene227298 0.0 102011
06:00+17ese227132 0.0 102115
09:00+24ese355427 0.0 1021457
12:00+28ese454378 0.0 10211482
15:00+29se453795 0.0 10202659
18:00+26ese4848100 0.0 1020290
21:00+23e385299 0.0 1021188
16 august, tue
tue1600:00+20ese4125624 0.0 1022306
03:00+18ese312665 0.0 1022239
06:00+17ese397047 0.0 1023193
09:00+23ese59475 0.0 1023568
12:00+26ese673717 0.0 10231669
15:00+28ese563073 0.0 10222018
18:00+26ese36375 0.0 1021239
21:00+19e355172 0.0 102165
17 august, wed
wed1700:00+17e411552 0.0 1021206
03:00+16e410605 0.0 1021181
06:00+16e49695 0.0 1021196
09:00+23ese58492 0.0 1021481
12:00+28ese56350 0.0 10201362
15:00+29e45317 0.0 10192132
18:00+27e343812 0.0 1018148
21:00+20e33530 0.0 101827